Location: Newark
(34.1333°N, 7.9667°W)
Time: 11:03:09
(UTC+00:00)

DUCHIFAT 1 - Pass Details

Date: 12 June 2023
Orbit: 561 x 575 km, 98.1° (Epoch: 21 September)

Event Time Altitude Azimuth Distance (km) Brightness Sun altitude
Rises 03:48:13 0° 14° (NNE) 2,822 ? -16.1°
Reaches altitude 10° 03:50:24 10° 16° (NNE) 1,916 ? -15.8°
Maximum altitude 03:54:33 75° 101° (ESE) 608 ? -15.2°
Enters shadow 03:57:44 17° 187° (S) 1,519 ? -14.7°
